Location: Newark
(40.2333°N, 1.4000°W)
Time: 01:54:07
(UTC+00:00)

OTV 5 (USA 277) - Visible Passes

Search period start: 25 March 2019 00:00
Search period end: 04 April 2019 00:00
Orbit: 315 x 320 km, 54.5° (Epoch: 14 March)

Date Brightness Start Highest point End Pass type
(mag) Time Alt. Az. Time Alt. Az. Time Alt. Az.
30 Mar ? 04:54:46 10° SSE 04:56:16 14° SE 04:57:45 10° E visible
31 Mar ? 05:08:13 10° SSW 05:10:45 40° SE 05:13:21 10° ENE visible
02 Apr ? 04:05:50 23° SE 04:05:57 23° SE 04:08:11 10° ENE visible
03 Apr ? 04:20:15 66° SSW 04:20:31 76° SE 04:23:14 10° NE visible
